| time (UTC) | temp F | wind direction | speed MPH | gust MPH | rain 1hr in | rain 24hr in | rain mn in | humidity % | barometer mb |
| 20260502130352 | 51 | 313 | 4.0 | 5.0 | 0.00 | 0.00 | 0.00 | 52 | 1013.6 |
| 20260502123352 | 50 | 351 | 4.0 | 5.0 | 0.00 | 0.00 | 0.00 | 53 | 1013.2 |
| 20260502122351 | 50 | 272 | 1.0 | 1.0 | 0.00 | 0.00 | 0.00 | 58 | 1013.2 |
| 20260502121347 | 50 | 296 | 1.0 | 1.0 | 0.00 | 0.00 | 0.00 | 54 | 1013.2 |
| 20260502120346 | 49 | 293 | 1.0 | 1.0 | 0.00 | 0.00 | 0.00 | 59 | 1012.8 |
| 20260502115341 | 50 | 260 | 3.0 | 3.0 | 0.00 | 0.00 | 0.00 | 59 | 1012.8 |
| 20260502114340 | 50 | 316 | 2.0 | 2.0 | 0.00 | 0.00 | 0.00 | 57 | 1012.4 |
| 20260502113340 | 50 | 285 | 3.0 | 3.0 | 0.00 | 0.00 | 0.00 | 58 | 1012.4 |
| 20260502112335 | 50 | 284 | 3.0 | 3.0 | 0.00 | 0.00 | 0.00 | 58 | 1012.1 |
| 20260502111331 | 50 | 343 | 1.0 | 2.0 | 0.00 | 0.00 | 0.00 | 57 | 1012.1 |
| 20260502110326 | 50 | 283 | 1.0 | 1.0 | 0.00 | 0.00 | 0.00 | 57 | 1012.4 |
| 20260502105325 | 50 | 276 | 2.0 | 2.0 | 0.00 | 0.00 | 0.00 | 56 | 1012.4 |
| 20260502104320 | 50 | 253 | 2.0 | 2.0 | 0.00 | 0.00 | 0.00 | 57 | 1012.4 |
| 20260502103315 | 50 | 306 | 1.0 | 1.0 | 0.00 | 0.00 | 0.00 | 57 | 1012.4 |
| 20260502102314 | 50 | 308 | 2.0 | 2.0 | 0.00 | 0.00 | 0.00 | 58 | 1012.4 |
| 20260502101310 | 51 | 283 | 1.0 | 1.0 | 0.00 | 0.00 | 0.00 | 58 | 1012.4 |
| 20260502100307 | 51 | 283 | 1.0 | 1.0 | 0.00 | 0.00 | 0.00 | 59 | 1012.1 |
| 20260502091252 | 52 | 318 | 15.0 | 18.0 | 0.00 | 0.00 | 0.00 | 52 | 1011.8 |
| 20260502090252 | 52 | 302 | 7.0 | 8.0 | 0.00 | 0.00 | 0.00 | 56 | 1011.8 |
| 20260502071222 | 53 | 311 | 15.0 | 20.0 | 0.00 | 0.00 | 0.00 | 63 | 1011.1 |
| 20260502070217 | 53 | 269 | 7.0 | 10.0 | 0.00 | 0.00 | 0.00 | 64 | 1011.1 |
| 20260502065213 | 53 | 286 | 8.0 | 9.0 | 0.00 | 0.00 | 0.00 | 63 | 1011.4 |
| 20260502064214 | 54 | 266 | 5.0 | 7.0 | 0.00 | 0.00 | 0.00 | 63 | 1011.4 |
| 20260502063209 | 54 | 304 | 3.0 | 5.0 | 0.00 | 0.00 | 0.00 | 62 | 1011.8 |
| 20260502062209 | 54 | 271 | 7.0 | 10.0 | 0.00 | 0.00 | 0.00 | 61 | 1011.8 |
| 20260502061204 | 54 | 329 | 9.0 | 11.0 | 0.00 | 0.00 | 0.00 | 62 | 1011.4 |
| 20260502060202 | 54 | 300 | 4.0 | 6.0 | 0.00 | 0.00 | 0.00 | 62 | 1011.8 |
| 20260502055158 | 55 | 322 | 9.0 | 11.0 | 0.00 | 0.00 | 0.00 | 61 | 1011.8 |
| 20260502054154 | 55 | 311 | 7.0 | 8.0 | 0.00 | 0.00 | 0.00 | 60 | 1011.4 |
| 20260502053154 | 55 | 295 | 9.0 | 11.0 | 0.00 | 0.00 | 0.00 | 59 | 1011.8 |
| 20260502052150 | 55 | 311 | 6.0 | 8.0 | 0.00 | 0.00 | 0.00 | 62 | 1011.8 |
| 20260502051146 | 55 | 266 | 10.0 | 13.0 | 0.00 | 0.00 | 0.00 | 60 | 1011.8 |
| 20260502050144 | 56 | 267 | 13.0 | 18.0 | 0.00 | 0.00 | 0.00 | 60 | 1011.8 |
| 20260502045139 | 56 | 303 | 11.0 | 14.0 | 0.00 | 0.00 | 0.00 | 61 | 1011.8 |
| 20260502044137 | 56 | 332 | 9.0 | 11.0 | 0.00 | 0.00 | 0.00 | 61 | 1011.8 |
| 20260502043132 | 57 | 283 | 15.0 | 18.0 | 0.00 | 0.00 | 0.00 | 62 | 1011.8 |
| 20260502042129 | 57 | 303 | 10.0 | 15.0 | 0.00 | 0.00 | 0.00 | 63 | 1011.8 |
| 20260502041129 | 57 | 292 | 10.0 | 14.0 | 0.00 | 0.00 | 0.00 | 63 | 1011.8 |
| 20260502040129 | 57 | 323 | 8.0 | 10.0 | 0.00 | 0.00 | 0.00 | 64 | 1011.8 |
| 20260502035128 | 57 | 317 | 12.0 | 15.0 | 0.00 | 0.00 | 0.00 | 63 | 1011.8 |
| 20260502034124 | 58 | 292 | 6.0 | 7.0 | 0.00 | 0.00 | 0.00 | 63 | 1011.8 |
| 20260502033119 | 57 | 318 | 3.0 | 6.0 | 0.00 | 0.00 | 0.00 | 65 | 1011.8 |
| 20260502032117 | 54 | 299 | 4.0 | 7.0 | 0.00 | 0.00 | 0.00 | 73 | 1011.8 |
| 20260502031113 | 52 | 316 | 2.0 | 2.0 | 0.00 | 0.00 | 0.00 | 87 | 1011.8 |
| 20260502030109 | 52 | 316 | 1.0 | 2.0 | 0.00 | 0.00 | 0.00 | 86 | 1011.8 |
| 20260502025104 | 51 | 316 | 0.0 | 0.0 | 0.00 | 0.00 | 0.00 | 85 | 1011.8 |
| 20260502024059 | 51 | 316 | 0.0 | 0.0 | 0.00 | 0.00 | 0.00 | 85 | 1011.4 |
| 20260502023100 | 52 | 316 | 1.0 | 1.0 | 0.00 | 0.00 | 0.00 | 85 | 1011.4 |
| 20260502022100 | 52 | 316 | 0.0 | 0.0 | 0.00 | 0.00 | 0.00 | 85 | 1011.1 |
| 20260502021059 | 52 | 316 | 0.0 | 0.0 | 0.00 | 0.00 | 0.00 | 83 | 1010.8 |
| 20260502020059 | 53 | 317 | 2.0 | 2.0 | 0.00 | 0.00 | 0.00 | 81 | 1011.1 |
| 20260502015059 | 52 | 316 | 0.0 | 0.0 | 0.00 | 0.00 | 0.00 | 81 | 1011.1 |
| 20260502014059 | 52 | 316 | 0.0 | 0.0 | 0.00 | 0.00 | 0.00 | 81 | 1010.8 |
| 20260502013057 | 53 | 316 | 2.0 | 2.0 | 0.00 | 0.00 | 0.00 | 79 | 1010.8 |
| 20260502012052 | 53 | 316 | 0.0 | 0.0 | 0.00 | 0.00 | 0.00 | 78 | 1010.8 |
| 20260502011051 | 54 | 316 | 0.0 | 0.0 | 0.00 | 0.00 | 0.00 | 78 | 1010.8 |
| 20260502010050 | 54 | 316 | 0.0 | 0.0 | 0.00 | 0.00 | 0.00 | 77 | 1010.8 |
| 20260502005046 | 54 | 316 | 0.0 | 1.0 | 0.00 | 0.00 | 0.00 | 76 | 1010.1 |
| 20260502004044 | 55 | 316 | 2.0 | 2.0 | 0.00 | 0.00 | 0.00 | 75 | 1010.1 |
| 20260502003039 | 57 | 316 | 1.0 | 1.0 | 0.00 | 0.00 | 0.00 | 71 | 1010.1 |
| 20260502002038 | 59 | 312 | 2.0 | 2.0 | 0.00 | 0.00 | 0.00 | 68 | 1010.1 |
| 20260502001033 | 60 | 310 | 0.0 | 0.0 | 0.00 | 0.00 | 0.00 | 67 | 1009.6 |
| 20260502000028 | 61 | 308 | 0.0 | 1.0 | 0.00 | 0.00 | 0.00 | 60 | 1009.6 |
| 20260501235025 | 62 | 305 | 1.0 | 1.0 | 0.00 | 0.00 | 0.00 | 57 | 1009.6 |
| 20260501234025 | 62 | 284 | 0.0 | 1.0 | 0.00 | 0.00 | 0.00 | 53 | 1009.6 |
| 20260501233020 | 63 | 294 | 1.0 | 2.0 | 0.00 | 0.00 | 0.00 | 53 | 1009.3 |
| 20260501232019 | 63 | 297 | 0.0 | 0.0 | 0.00 | 0.00 | 0.00 | 54 | 1009.6 |
| 20260501231015 | 64 | 308 | 2.0 | 2.0 | 0.00 | 0.00 | 0.00 | 51 | 1009.3 |
| 20260501230011 | 64 | 309 | 0.0 | 0.0 | 0.00 | 0.00 | 0.00 | 55 | 1009.3 |
| 20260501225010 | 64 | 277 | 0.0 | 0.0 | 0.00 | 0.00 | 0.00 | 57 | 1009.3 |
| 20260501224010 | 64 | 278 | 0.0 | 1.0 | 0.00 | 0.00 | 0.00 | 53 | 1009.3 |
| 20260501223009 | 64 | 282 | 0.0 | 0.0 | 0.00 | 0.00 | 0.00 | 51 | 1009.3 |
| 20260501222008 | 65 | 265 | 1.0 | 2.0 | 0.00 | 0.00 | 0.00 | 48 | 1009.3 |
| 20260501221003 | 67 | 79 | 2.0 | 3.0 | 0.00 | 0.00 | 0.00 | 47 | 1009.6 |
| 20260501220002 | 66 | 269 | 2.0 | 2.0 | 0.00 | 0.00 | 0.00 | 46 | 1009.3 |
| 20260501215000 | 65 | 312 | 3.0 | 3.0 | 0.00 | 0.00 | 0.00 | 47 | 1009.3 |
| 20260501213958 | 67 | 262 | 2.0 | 2.0 | 0.00 | 0.00 | 0.00 | 46 | 1009.6 |
| 20260501212955 | 66 | 274 | 2.0 | 2.0 | 0.00 | 0.00 | 0.00 | 45 | 1009.6 |
| 20260501211955 | 68 | 276 | 0.0 | 1.0 | 0.00 | 0.00 | 0.00 | 46 | 1009.6 |
| 20260501210950 | 67 | 30 | 3.0 | 3.0 | 0.00 | 0.00 | 0.00 | 45 | 1009.6 |
| 20260501205949 | 67 | 254 | 4.0 | 5.0 | 0.00 | 0.00 | 0.00 | 44 | 1010.1 |
| 20260501204949 | 67 | 288 | 1.0 | 2.0 | 0.00 | 0.00 | 0.00 | 47 | 1010.4 |
| 20260501203947 | 68 | 256 | 3.0 | 3.0 | 0.00 | 0.00 | 0.00 | 44 | 1010.1 |
| 20260501202947 | 67 | 152 | 3.0 | 8.0 | 0.00 | 0.00 | 0.00 | 45 | 1010.4 |
| 20260501201946 | 66 | 267 | 1.0 | 2.0 | 0.00 | 0.00 | 0.00 | 45 | 1010.4 |
| 20260501200946 | 65 | 143 | 2.0 | 2.0 | 0.00 | 0.00 | 0.00 | 48 | 1011.1 |
| 20260501195946 | 67 | 265 | 3.0 | 3.0 | 0.00 | 0.00 | 0.00 | 47 | 1010.8 |
| 20260501194945 | 65 | 283 | 1.0 | 1.0 | 0.00 | 0.00 | 0.00 | 50 | 1011.1 |
| 20260501193942 | 65 | 289 | 3.0 | 6.0 | 0.00 | 0.00 | 0.00 | 45 | 1011.4 |
| 20260501192938 | 65 | 281 | 3.0 | 5.0 | 0.00 | 0.00 | 0.00 | 47 | 1011.4 |
| 20260501191938 | 64 | 318 | 2.0 | 2.0 | 0.00 | 0.00 | 0.00 | 46 | 1012.1 |
| 20260501190938 | 65 | 352 | 3.0 | 3.0 | 0.00 | 0.00 | 0.00 | 46 | 1011.8 |
| 20260501185934 | 64 | 292 | 1.0 | 1.0 | 0.00 | 0.00 | 0.00 | 49 | 1011.8 |
| 20260501184933 | 63 | 229 | 3.0 | 3.0 | 0.00 | 0.00 | 0.00 | 45 | 1012.1 |
| 20260501183930 | 64 | 265 | 3.0 | 8.0 | 0.00 | 0.00 | 0.00 | 52 | 1012.1 |
| 20260501182929 | 63 | 273 | 3.0 | 3.0 | 0.00 | 0.00 | 0.00 | 47 | 1012.4 |
| 20260501181929 | 63 | 257 | 3.0 | 5.0 | 0.00 | 0.00 | 0.00 | 48 | 1012.8 |
| 20260501180929 | 62 | 189 | 3.0 | 5.0 | 0.00 | 0.00 | 0.00 | 47 | 1012.8 |
| 20260501175928 | 62 | 73 | 6.0 | 7.0 | 0.00 | 0.00 | 0.00 | 48 | 1012.8 |
| 20260501174928 | 62 | 317 | 2.0 | 2.0 | 0.00 | 0.00 | 0.00 | 51 | 1012.8 |
| 20260501173923 | 62 | 215 | 6.0 | 8.0 | 0.00 | 0.00 | 0.00 | 48 | 1013.2 |
| 20260501172922 | 62 | 79 | 4.0 | 5.0 | 0.00 | 0.00 | 0.00 | 52 | 1013.6 |
| 20260501171919 | 61 | 54 | 3.0 | 5.0 | 0.00 | 0.00 | 0.00 | 54 | 1013.6 |
| 20260501170918 | 61 | 306 | 2.0 | 3.0 | 0.00 | 0.00 | 0.00 | 56 | 1013.6 |
| 20260501165913 | 61 | 277 | 2.0 | 2.0 | 0.00 | 0.00 | 0.00 | 54 | 1013.6 |
| 20260501164914 | 60 | 307 | 2.0 | 2.0 | 0.00 | 0.00 | 0.00 | 55 | 1013.9 |
| 20260501163913 | 59 | 258 | 4.0 | 5.0 | 0.00 | 0.00 | 0.00 | 54 | 1014.2 |
| 20260501162911 | 59 | 254 | 2.0 | 2.0 | 0.00 | 0.00 | 0.00 | 55 | 1014.2 |
| 20260501161911 | 60 | 319 | 5.0 | 6.0 | 0.00 | 0.00 | 0.00 | 53 | 1014.6 |
| 20260501160910 | 59 | 274 | 2.0 | 2.0 | 0.00 | 0.00 | 0.00 | 55 | 1014.2 |
| 20260501155911 | 58 | 356 | 1.0 | 2.0 | 0.00 | 0.00 | 0.00 | 53 | 1014.6 |
| 20260501154910 | 58 | 282 | 2.0 | 3.0 | 0.00 | 0.00 | 0.00 | 59 | 1014.6 |
| 20260501153904 | 58 | 196 | 4.0 | 7.0 | 0.00 | 0.00 | 0.00 | 57 | 1014.9 |
| 20260501152903 | 57 | 324 | 3.0 | 3.0 | 0.00 | 0.00 | 0.00 | 57 | 1014.9 |
| 20260501151858 | 57 | 4 | 1.0 | 2.0 | 0.00 | 0.00 | 0.00 | 58 | 1015.3 |
| 20260501150856 | 56 | 254 | 6.0 | 7.0 | 0.00 | 0.00 | 0.00 | 59 | 1015.3 |
| 20260501145855 | 56 | 231 | 2.0 | 3.0 | 0.00 | 0.00 | 0.00 | 59 | 1014.9 |
| 20260501144855 | 58 | 269 | 1.0 | 1.0 | 0.00 | 0.00 | 0.00 | 59 | 1015.3 |
| 20260501143852 | 55 | 32 | 2.0 | 3.0 | 0.00 | 0.00 | 0.00 | 61 | 1015.3 |
| 20260501142852 | 55 | 285 | 0.0 | 0.0 | 0.00 | 0.00 | 0.00 | 59 | 1015.3 |